Hourly Data Report for October 13, 2014

All times are specified in Local Standard Time (LST). Add 1 hour to adjust for Daylight Saving Time where and when it is observed.

CAPE DORSET A
NUNAVUT

64°13'49.000" N
76°31'30.000" W
48.20 m
2400637
71366
YTE

Download Data

Hourly Data (October 2014)
Hourly Data Report for October 13, 2014
Temp Definition
°C
Dew Point Temp Definition
°C
Rel Hum Definition
%
Wind Dir Definition
10's deg

Wind Spd Definition
km/h
Visibility Definition
km
Stn Press Definition
kPa
Hmdx Definition


Wind Chill Definition


Weather Definition


TIME
00:00 Legend Double Dagger -2.5 -3.1 96 29 4 16.1 99.43   -4 LegendNANA
01:00 Legend Double Dagger -2.4 -3.6 92 34 13 16.1 99.47   -7 LegendNANA
02:00 Legend Double Dagger -2.7 -4.1 90 32 11 16.1 99.52   -7 LegendNANA
03:00 Legend Double Dagger -3.2 -4.3 92 25 5 16.1 99.55   -5 LegendNANA
04:00 Legend Double Dagger -2.5 -4.1 89 27 5 16.1 99.58   -4 LegendNANA
05:00 Legend Double Dagger -2.8 -4.2 90 26 9 16.1 99.61   -6 LegendNANA
06:00 Legend Double Dagger -2.6 -3.9 91 25 4 16.1 99.64   -4 LegendNANA
07:00 Legend Double Dagger -2.3 -4.2 87 27 9 16.1 99.65   -6 LegendNANA
08:00 Legend Double Dagger -2.0 -3.4 90 26 8 16.1 99.68   -5 LegendNANA
09:00 Legend Double Dagger -1.6 -3.3 88 27 5 16.1 99.70   -3 LegendNANA
10:00 Legend Double Dagger -1.4 -2.5 92 25 4 16.1 99.73   -3 LegendNANA
11:00 Legend Double Dagger -1.3 -2.4 92 25 5 16.1 99.74   -3 LegendNANA
12:00 Legend Double Dagger -1.0 -2.6 89 26 5 16.1 99.75   -3 LegendNANA
13:00 Legend Double Dagger -0.9 -2.2 91   0 16.1 99.78     LegendNANA
14:00 Legend Double Dagger -0.9 -2.3 90 LegendMM 4 16.1 99.82   -2 LegendNANA
15:00 Legend Double Dagger -1.1 -4.2 80 34 13 16.1 99.86   -5 Snow
16:00 Legend Double Dagger -1.5 -4.7 79 34 11 16.1 99.92   -5 LegendNANA
17:00 Legend Double Dagger -2.6 -5.8 79 35 13 16.1 99.94   -7 LegendNANA
18:00 Legend Double Dagger -3.4 -5.8 84 5 5 16.1 99.96   -5 LegendNANA
19:00 Legend Double Dagger -3.7 -5.9 85   0 16.1 99.97     LegendNANA
20:00 Legend Double Dagger -3.7 -5.9 85 30 4 16.1 99.98   -5 Snow
21:00 Legend Double Dagger -3.8 -5.9 86 24 4 16.1 99.98   -5 LegendNANA
22:00 Legend Double Dagger -3.2 -5.7 83 29 4 16.1 99.99   -5 LegendNANA
23:00 Legend Double Dagger -2.8 -5.3 83 27 4 16.1 100.00   -4 Snow

Notes on Data Quality.

Legend

  • E = Estimated
  • M = Missing
  • NA = Not Available
  • ‡ = Partner data that is not subject to review by the National Climate Archives
Date modified: